#timestamp,LO_Frequency,Hit,StdDev 
1675836015.2,286047004.2,N
1675836035.9,286047002.0,N
1675836055.7,286047001.8,N
1675836075.6,286047001.9,N
1675836095.4,286047003.6,N
1675836115.2,286047004.4,N
1675836135.1,286047002.8,N
1675836136.0,286047002.8,N
1675836155.8,286047000.2,N
1675836175.7,286046999.8,N
1675836195.5,286047000.4,N
1675836215.3,286047000.4,N
1675836235.2,286047000.8,N
1675836255.9,286047001.9,N
1675836275.7,286047001.9,N
1675836295.6,286047000.5,N
1675836315.4,286046999.8,N
1675836335.3,286047000.7,N
1675836355.1,286046998.6,N
1675836356.0,286046998.6,N
1675836375.8,286046998.7,N
1675836395.7,286046999.5,N
1675836415.5,286046998.6,N
1675836435.3,286047001.0,N
1675836455.2,286047001.1,N
1675836475.0,286046998.8,N
1675836475.9,286046998.8,N
1675836495.8,286047001.0,N
1675836515.6,286047000.8,N
1675836535.4,286047000.8,N
1675836555.3,286047000.6,N
1675836575.1,286046999.8,N
1675836595.8,286047000.6,N
1675836615.7,286046998.1,N
1675836635.5,286046998.4,N
1675836655.4,286047000.4,N
1675836675.2,286046998.7,N
1675836695.0,286046999.6,N
1675836695.9,286046999.6,N
1675836715.8,286046998.7,N
1675836735.6,286047001.2,N
1675836755.4,286047000.6,N
1675836775.3,286046998.9,N
1675836795.1,286046998.6,N
1675836815.9,286046998.1,N
1675836835.7,286046996.9,Y
1675836855.5,286046999.0,P
1675836875.4,286046996.5,P
1675836895.2,286046996.7,N
1675836915.1,286046996.7,N
1675836916.0,286046996.7,N
1675836935.8,286046998.7,N
1675836955.6,286046999.9,N
1675836975.5,286047000.6,N
1675836995.3,286047002.4,N
1675837015.1,286047002.7,N
1675837035.9,286047000.1,N
1675837055.7,286046999.9,N
1675837075.6,286047002.4,N
1675837095.4,286047001.7,N
1675837115.2,286047001.6,N
1675837135.1,286047001.6,N
1675837136.0,286047001.6,N
1675837155.8,286047001.8,N
1675837175.6,286047004.1,N
1675837195.5,286047004.0,N
1675837215.3,286047004.0,N
1675837235.2,286047004.2,N
1675837255.9,286047003.2,N
1675837275.7,286047004.2,N
1675837295.6,286047001.7,N
1675837315.4,286047002.1,N
1675837335.2,286047001.3,N
1675837355.1,286047002.5,N
1675837356.0,286047002.5,N
1675837375.8,286047002.4,N
1675837395.7,286047000.1,N
1675837415.5,286047000.0,N
1675837435.3,286047000.2,N
1675837455.2,286047000.2,N
1675837475.0,286047001.7,N
1675837475.9,286047001.7,N
1675837495.8,286047003.7,N
1675837515.6,286047001.4,N
1675837535.4,286047001.3,N
1675837555.3,286047002.5,N
1675837575.1,286047002.3,N
1675837595.9,286046999.9,N
1675837615.7,286047002.4,N
1675837635.5,286047004.3,Y
1675837655.4,286046999.9,P
1675837675.2,286047000.6,N
1675837695.1,286047000.2,N
1675837696.0,286047000.2,N
1675837715.8,286046999.8,N
1675837735.6,286046999.7,N
1675837755.5,286047000.9,N
1675837775.3,286047001.1,N
1675837795.1,286047001.1,N
1675837815.9,286046996.8,Y
1675837835.7,286046997.7,P
1675837855.6,286046999.6,N
1675837875.4,286046999.1,N
1675837895.2,286046999.2,N
1675837915.1,286046999.3,N
1675837916.0,286046999.3,N
1675837935.8,286046997.5,Y
1675837955.7,286046999.1,P
1675837975.5,286046998.8,P
1675837995.3,286046998.9,P
1675838015.2,286046997.1,Y
1675838035.0,286046998.7,P
1675838035.9,286046998.7,P
1675838055.8,286046999.5,P
1675838075.6,286046998.5,Y
1675838095.4,286047001.8,P
1675838115.3,286047002.5,N
1675838135.1,286047002.8,N
1675838155.9,286046999.7,N
1675838175.7,286047002.3,N
1675838195.5,286047002.7,N
1675838215.4,286047001.3,N
1675838235.2,286047001.8,N
1675838255.0,286047004.0,Y
1675838255.9,286047004.0,P
1675838275.8,286047002.2,N
1675838295.6,286047001.4,N
1675838315.5,286047001.7,N
1675838335.3,286046999.8,N
1675838355.1,286047000.7,N
1675838375.9,286047000.0,N
1675838395.7,286047000.6,N
1675838415.5,286047000.3,N
1675838435.4,286047001.8,N
1675838455.2,286047000.0,N
1675838475.1,286047001.9,N
1675838476.0,286047001.9,N
1675838495.8,286047004.2,Y
1675838515.6,286046999.9,P
1675838535.5,286047000.2,N
1675838555.3,286046998.2,P
1675838575.1,286046998.6,N
1675838595.9,286046998.8,N
1675838615.7,286046998.5,N
1675838635.6,286046998.4,N
1675838655.4,286046998.7,N
1675838675.2,286047000.9,N
1675838695.1,286046998.2,N
1675838696.0,286046998.2,N
1675838715.8,286046998.6,N
1675838735.6,286046998.4,N
1675838755.5,286047001.2,N
1675838775.3,286047000.6,N
1675838795.2,286047000.2,N
1675838815.9,286046999.7,N
1675838835.7,286046997.8,N
1675838855.6,286046999.2,N
1675838875.4,286047000.7,N
1675838895.2,286046998.3,N
1675838915.1,286046999.2,N
1675838916.0,286046999.2,N
1675838935.8,286046996.6,Y
1675838955.7,286047001.2,P
1675838975.5,286047000.7,N
1675838995.3,286047000.1,N
1675839015.2,286047000.5,N
1675839035.0,286046999.4,N
1675839035.9,286046999.4,N
1675839055.7,286046998.6,N
1675839075.6,286046998.2,N
1675839095.9,286046998.4,N
1675839115.7,286046999.3,N
1675839135.5,286046998.8,N
1675839155.4,286046998.6,N
1675839175.2,286047001.0,N
1675839195.0,286046998.2,N
1675839195.9,286046998.2,N
1675839215.8,286046998.5,N
1675839235.6,286046998.3,N
1675839255.4,286046999.9,N
1675839275.3,286047002.8,N
1675839295.1,286046999.9,N
1675839315.9,286047001.6,N
1675839335.7,286047002.2,N
1675839355.5,286047002.4,N
1675839375.4,286047002.8,N
1675839395.2,286047001.8,N
1675839415.1,286047002.0,N
1675839416.0,286047002.0,N
1675839435.8,286047002.4,N
1675839455.6,286047002.0,N
1675839475.5,286047001.3,N
1675839495.3,286047002.2,N
1675839515.2,286047003.9,N
1675839535.9,286047001.4,N
1675839555.7,286046999.8,N
1675839575.6,286046999.9,N
1675839595.4,286046998.2,N
